Location: Unspecified
(43.9939°N, 0.0000°E)
Time: 00:28:56
(UTC+00:00)

NPP - Visible Passes

Search period start: 04 April 2026 00:00
Search period end: 14 April 2026 00:00
Orbit: 826 x 828 km, 98.8° (Epoch: 29 March)

Date Brightness Start Highest point End Pass type
(mag) Time Alt. Az. Time Alt. Az. Time Alt. Az.
4 Apr 4.9 01:41:50 10° NNE 01:45:14 38° NE 01:45:14 38° NE visible
4 Apr 5.2 03:23:04 10° NNW 03:26:44 20° WNW 03:26:44 20° WNW visible
5 Apr 5.2 01:23:15 10° NNE 01:26:22 30° NE 01:26:22 30° NE visible
5 Apr 4.8 03:03:51 10° N 03:07:52 28° NW 03:07:52 28° NW visible
6 Apr 5.6 01:04:49 10° NE 01:07:30 23° ENE 01:07:30 23° ENE visible
6 Apr 4.5 02:44:48 10° N 02:49:00 37° NW 02:49:00 37° NW visible
7 Apr 5.9 00:46:38 10° NE 00:48:37 17° ENE 00:48:37 17° ENE visible
7 Apr 4.2 02:25:52 10° N 02:30:08 48° NNW 02:30:08 48° NNW visible
8 Apr 6.2 00:28:55 10° ENE 00:29:45 12° ENE 00:29:45 12° ENE visible
8 Apr 4.1 02:07:02 10° NNE 02:11:16 56° N 02:11:16 56° N visible
8 Apr 5.6 03:49:27 10° NNW 03:51:48 13° NW 03:52:46 12° WNW visible
9 Apr 4.4 01:48:19 10° NNE 01:52:23 51° NE 01:52:23 51° NE visible
9 Apr 5.3 03:29:46 10° NNW 03:33:20 18° WNW 03:33:54 18° WNW visible
10 Apr 4.8 01:29:41 10° NNE 01:33:31 39° ENE 01:33:31 39° ENE visible
10 Apr 4.9 03:10:30 10° N 03:14:48 25° WNW 03:15:01 25° WNW visible
11 Apr 5.2 01:11:12 10° NNE 01:14:39 29° ENE 01:14:39 29° ENE visible
11 Apr 4.5 02:51:23 10° N 02:56:09 35° WNW 02:56:09 35° WNW visible
12 Apr 5.6 00:52:54 10° NE 00:55:46 21° ENE 00:55:46 21° ENE visible
12 Apr 4.0 02:32:25 10° N 02:37:17 49° WNW 02:37:17 49° WNW visible
13 Apr 6.0 00:34:58 10° NE 00:36:54 15° ENE 00:36:54 15° ENE visible
13 Apr 3.8 02:13:33 10° N 02:18:24 66° NNW 02:18:24 66° NNW visible
13 Apr 5.7 03:56:31 10° NW 03:58:11 11° NW 03:59:52 10° WNW visible
